(184224) = 2004 RB74

Discovered at Socorro on 2004-09-08 by LINEAR.

Orbit

Orbit type: Main Belt

Note: WebGL enabled browser required.

epoch2024-03-31.0
epoch JD2460400.5
perihelion date2020-07-29.49848
perihelion JD2459059.99848
argument of perihelion (°)352.82101
ascending node (°)293.88293
inclination (°)1.80904
eccentricity0.2098966
perihelion distance (AU)2.4713322
Tisserand w.r.t. Jupiter3.2
ΔV w.r.t. Earth (km/sec)9.9
semimajor axis (AU)3.1278593
mean anomaly (°)238.83631
mean daily motion (°/day)0.17816940
aphelion distance (AU)3.784
period (years)5.53
P-vector [x]0.28748333
P-vector [y]-0.87717442
P-vector [z]-0.38460158
Q-vector [x]0.95735057
Q-vector [y]0.25106606
Q-vector [z]0.14298852
absolute magnitude15.85
phase slope0.15
uncertainty0
referenceMPEC 2024-E73
observations used418
oppositions16
arc length (days)7616
first opposition used2003
last opposition used2024
residual rms (arc-secs)0.80
perturbers coarse indicatorM-v
perturbers precise indicator003Ek
first observation date used2003-04-29.0
last observation date used2024-03-05.0
computer nameMPCLINUX
JD of orbit computation2456937.462102
perihelion JD uncertainty (days)8.9779E-05
argument of perihelion uncertainty (°)1.9374E-04
ascending node uncertainty (°)1.9327E-04
inclination uncertainty (°)3.2962E-06
eccentricity uncertainty 4.7647E-08
perihelion distance uncertainty (AU)1.7126E-07
Minimum Orbit Intersection Distances (in AU)
for orbit epoch: 2460400.5, reference: E2024-E73
Mercury2.01713
Venus1.74393
Earth1.45473
Mars1.03212
Jupiter1.38622
Saturn5.27235
Uranus14.8582
Neptune26.2548

Observations

437 total observations over interval: 2003 04 29.32254 – 2024 03 05.199243
These data are available for download (format description).

Date (UT) J2000 RA J2000 Dec Magn Location Ref
2003 04 29.32254 15 13 13.96 -20 39 34.1 19.0 C 704 – Lincoln Laboratory ETS, New Mexico MPS 291402
2003 04 29.33473 15 13 13.41 -20 39 33.0 19.2 C 704 – Lincoln Laboratory ETS, New Mexico MPS 291402
2003 04 29.34667 15 13 12.81 -20 39 31.5 19.2 C 704 – Lincoln Laboratory ETS, New Mexico MPS 291402
2003 04 29.35868 15 13 12.18 -20 39 29.8 19.2 C 704 – Lincoln Laboratory ETS, New Mexico MPS 291402
2003 04 30.33171 15 12 27.72 -20 36 41.8 20.1   704 – Lincoln Laboratory ETS, New Mexico MPS 155306
2003 04 30.34365 15 12 27.11 -20 36 39.5 19.9   704 – Lincoln Laboratory ETS, New Mexico MPS 155306
2003 04 30.35560 15 12 26.53 -20 36 36.3 19.9   704 – Lincoln Laboratory ETS, New Mexico MPS 155306
2003 04 30.36763 15 12 25.99 -20 36 34.6 19.4   704 – Lincoln Laboratory ETS, New Mexico MPS 155306
2004 09 07.29819 23 54 04.29 +02 00 32.6 20.1 R 683 – Goodricke-Pigott Observatory, Tucson MPS 113078
2004 09 07.31157 23 54 03.83 +02 00 30.1 21.2 R 683 – Goodricke-Pigott Observatory, Tucson MPS 113078
2004 09 07.32494 23 54 02.96 +02 00 27.2 21.0 R 683 – Goodricke-Pigott Observatory, Tucson MPS 113078
2004 09 08.26110 23 53 22.01 +01 56 31.9 20.7   704 – Lincoln Laboratory ETS, New Mexico MPS 112886
2004 09 08.27301 23 53 21.49 +01 56 28.3 19.8   704 – Lincoln Laboratory ETS, New Mexico MPS 112886
2004 09 08.28553 23 53 20.90 +01 56 23.9 20.3   704 – Lincoln Laboratory ETS, New Mexico MPS 112886
2004 09 09.24429 23 52 38.48 +01 52 20.2 20.0   704 – Lincoln Laboratory ETS, New Mexico MPS 112886
2004 09 09.25568 23 52 37.96 +01 52 16.9 19.6   704 – Lincoln Laboratory ETS, New Mexico MPS 112886
2004 09 09.26709 23 52 37.53 +01 52 14.0 19.4 C 704 – Lincoln Laboratory ETS, New Mexico MPS 291402
2004 09 09.27849 23 52 36.91 +01 52 10.1 19.6   704 – Lincoln Laboratory ETS, New Mexico MPS 112886
2004 09 11.28521 23 51 06.95 +01 43 25.3 21.0 R 683 – Goodricke-Pigott Observatory, Tucson MPS 113078
2004 09 11.29861 23 51 06.41 +01 43 23.4 20.3 R 683 – Goodricke-Pigott Observatory, Tucson MPS 113078
2004 09 11.31196 23 51 05.54 +01 43 18.5 21.0 R 683 – Goodricke-Pigott Observatory, Tucson MPS 113078
2004 09 13.24491 23 49 37.63 +01 34 36.3 19.1   704 – Lincoln Laboratory ETS, New Mexico MPS 113078
2004 09 13.25646 23 49 37.09 +01 34 32.8 19.9   704 – Lincoln Laboratory ETS, New Mexico MPS 113078
2004 09 13.26800 23 49 36.53 +01 34 30.2 19.5   704 – Lincoln Laboratory ETS, New Mexico MPS 113078
2004 09 15.22032 23 48 06.93 +01 25 32.3 19.6 V 691 – Steward Observatory, Kitt Peak-Spacewatch MPS 113078
2004 09 15.24859 23 48 05.59 +01 25 24.6 19.7 V 691 – Steward Observatory, Kitt Peak-Spacewatch MPS 113078
2004 09 15.28186 23 48 04.01 +01 25 15.5 19.6 V 691 – Steward Observatory, Kitt Peak-Spacewatch MPS 113078
2004 09 16.33646 23 47 15.30 +01 20 20.9 19.6 V 691 – Steward Observatory, Kitt Peak-Spacewatch MPS 113078
2004 09 16.36689 23 47 13.85 +01 20 12.4 19.6 V 691 – Steward Observatory, Kitt Peak-Spacewatch MPS 113078
2004 09 16.40158 23 47 12.19 +01 20 02.6 19.5 V 691 – Steward Observatory, Kitt Peak-Spacewatch MPS 113078
2004 09 17.26990 23 46 32.31 +01 15 59.4 19.3   704 – Lincoln Laboratory ETS, New Mexico MPS 113078
2004 09 17.28158 23 46 31.78 +01 15 56.3 19.9   704 – Lincoln Laboratory ETS, New Mexico MPS 113078
2004 09 17.29325 23 46 31.26 +01 15 52.1 19.9   704 – Lincoln Laboratory ETS, New Mexico MPS 113078
2004 09 17.30493 23 46 30.60 +01 15 49.0 20.1   704 – Lincoln Laboratory ETS, New Mexico MPS 113078
2004 09 17.31662 23 46 30.06 +01 15 46.8 19.8   704 – Lincoln Laboratory ETS, New Mexico MPS 113078
2004 09 18.23817 23 45 47.71 +01 11 26.3 19.0   704 – Lincoln Laboratory ETS, New Mexico MPS 114455
2004 09 18.24209 23 45 47.55 +01 11 24.9 19.4   704 – Lincoln Laboratory ETS, New Mexico MPS 114455
2004 09 18.25006 23 45 47.17 +01 11 22.1 19.4   704 – Lincoln Laboratory ETS, New Mexico MPS 114455
2004 09 18.25439 23 45 46.92 +01 11 21.4 19.4   704 – Lincoln Laboratory ETS, New Mexico MPS 114455
2004 09 18.26189 23 45 46.59 +01 11 18.9 19.7   704 – Lincoln Laboratory ETS, New Mexico MPS 114455
2004 09 18.26657 23 45 46.36 +01 11 17.6 19.4   704 – Lincoln Laboratory ETS, New Mexico MPS 114455
2004 09 18.27372 23 45 46.01 +01 11 15.9 19.6   704 – Lincoln Laboratory ETS, New Mexico MPS 114455
2004 09 18.27869 23 45 45.78 +01 11 14.3 19.8   704 – Lincoln Laboratory ETS, New Mexico MPS 114455
2004 09 18.28554 23 45 45.45 +01 11 12.4 20.0   704 – Lincoln Laboratory ETS, New Mexico MPS 114455
2004 09 18.29084 23 45 45.25 +01 11 10.5 20.2   704 – Lincoln Laboratory ETS, New Mexico MPS 114455
2004 09 24.308787 23 41 11.637 +00 42 42.76 19.53 V 645 – Apache Point-Sloan Digital Sky Survey MPS 390178
2004 09 24.312259 23 41 11.478 +00 42 41.81 20.18   645 – Apache Point-Sloan Digital Sky Survey MPS 390178
2004 10 10.228767 23 30 45.125 -00 26 29.35 20.05 V 645 – Apache Point-Sloan Digital Sky Survey MPS 390178
2004 10 10.232239 23 30 45.006 -00 26 30.09 20.67   645 – Apache Point-Sloan Digital Sky Survey MPS 390178
2004 10 13.08598 23 29 17.08 -00 36 52.8 20.6 V 691 – Steward Observatory, Kitt Peak-Spacewatch MPS 116667
2004 10 13.10756 23 29 16.47 -00 36 57.8 20.1 V 691 – Steward Observatory, Kitt Peak-Spacewatch MPS 116667
2004 10 13.12519 23 29 15.93 -00 37 01.3 20.1 V 691 – Steward Observatory, Kitt Peak-Spacewatch MPS 116667
2004 12 13.095897 23 38 36.721 -00 12 28.10 21.22 V 645 – Apache Point-Sloan Digital Sky Survey MPS 390178
2004 12 13.099369 23 38 36.862 -00 12 27.29 21.75   645 – Apache Point-Sloan Digital Sky Survey MPS 390178
2005 11 25.24659 04 41 46.63 +23 59 13.0   691 – Steward Observatory, Kitt Peak-Spacewatch MPS 153695
2005 11 25.26398 04 41 45.70 +23 59 11.3   691 – Steward Observatory, Kitt Peak-Spacewatch MPS 153695
2005 11 25.28136 04 41 44.80 +23 59 09.7   691 – Steward Observatory, Kitt Peak-Spacewatch MPS 153695
2005 11 29.15918 04 38 24.06 +23 52 04.9 21.6 V 691 – Steward Observatory, Kitt Peak-Spacewatch MPS 153695
2005 11 29.17650 04 38 23.15 +23 52 02.9 21.0 V 691 – Steward Observatory, Kitt Peak-Spacewatch MPS 153695
2005 11 29.19388 04 38 22.20 +23 52 01.3 21.0 V 691 – Steward Observatory, Kitt Peak-Spacewatch MPS 153695
2006 01 07.20693 04 10 41.01 +22 32 44.2 21.0 V G96 – Mt. Lemmon Survey MPS 158965
2006 01 07.21322 04 10 40.80 +22 32 43.8 21.1 V G96 – Mt. Lemmon Survey MPS 158965
2006 01 07.21949 04 10 40.65 +22 32 42.6 20.8 V G96 – Mt. Lemmon Survey MPS 158965
2006 01 07.22587 04 10 40.51 +22 32 42.1 21.7 V G96 – Mt. Lemmon Survey MPS 158965
2007 01 24.24069 08 13 36.91 +19 33 39.8 20.8 V G96 – Mt. Lemmon Survey MPS 197052
2007 01 24.24733 08 13 36.55 +19 33 40.5 21.0 V G96 – Mt. Lemmon Survey MPS 197052
2007 01 24.25400 08 13 36.22 +19 33 41.6 21.1 V G96 – Mt. Lemmon Survey MPS 197052
2007 01 24.26060 08 13 35.90 +19 33 42.5 21.0 V G96 – Mt. Lemmon Survey MPS 197052
2007 02 22.21453 07 52 55.66 +20 26 37.5 21.6 V G96 – Mt. Lemmon Survey MPS 200372
2007 02 22.22063 07 52 55.48 +20 26 37.0 21.3 V G96 – Mt. Lemmon Survey MPS 200372
2007 02 22.22665 07 52 55.34 +20 26 37.9 22.0 V G96 – Mt. Lemmon Survey MPS 200372
2007 02 22.23277 07 52 55.09 +20 26 38.5 21.5 V G96 – Mt. Lemmon Survey MPS 200372
2008 02 10.42602 12 17 38.94 -04 07 46.0 20.8 V G96 – Mt. Lemmon Survey MPS 237532
2008 02 10.44001 12 17 38.65 -04 07 45.2 21.2 V G96 – Mt. Lemmon Survey MPS 237532
2008 02 10.45381 12 17 38.47 -04 07 44.3 20.6 V G96 – Mt. Lemmon Survey MPS 237532
2008 02 10.46623 12 17 38.22 -04 07 43.6 20.9 V G96 – Mt. Lemmon Survey MPS 237532
2008 02 27.29258 12 10 23.93 -03 33 16.6 20.6 V 691 – Steward Observatory, Kitt Peak-Spacewatch MPS 239418
2008 02 27.31018 12 10 23.28 -03 33 13.5 20.7 V 691 – Steward Observatory, Kitt Peak-Spacewatch MPS 239418
2008 02 27.32777 12 10 22.69 -03 33 10.1 20.5 V 691 – Steward Observatory, Kitt Peak-Spacewatch MPS 239418
2008 02 27.43266 12 10 18.91 -03 32 51.0 20.4 V G96 – Mt. Lemmon Survey MPS 239418
2008 02 27.43881 12 10 18.66 -03 32 49.9 20.7 V G96 – Mt. Lemmon Survey MPS 239418
2008 02 27.44493 12 10 18.44 -03 32 48.4 20.2 V G96 – Mt. Lemmon Survey MPS 239418
2008 02 27.45115 12 10 18.22 -03 32 47.4 20.3 V G96 – Mt. Lemmon Survey MPS 239418
